www.pogodaiklimat.ru

Погода и климат >> Архив погоды >> Малайзия >> Kota Kinabalu


ПОГОДА в Kota Kinabalu

  • Прогноз погоды в Kota Kinabalu
  • Монитор погоды в Kota Kinabalu
  • Климат города

АРХИВ ПОГОДЫ в Kota Kinabalu

Время (UTC), дата Ветер
(напр.,м/с)
 
Видим.   Явления Облачность Т
(С)
Тd
(С)
f
(%)
Тe
(С)
Тes
(С)
Комфортность P
(гПа)
Po
(гПа)
Тmin
(С)
Tmax
(С)
R
(мм)
R24
(мм)
S
(см)
00 14.01 В 2 25 км 9/3 420 м
[Cu Sc Ac lent Cs]
+25.6 +24.3 93 +36 +37 очень
душно
1009.6 1009.3 +24.3 0.0
03 14.01 СЗ 1 28 км 9/4 420 м
[Cu Sc Ac lent Cs]
+30.0 +24.7 73 +43 +49 опасность
перегрева
1009.3 1009.0
06 14.01 С 3 18 км осадки на расстоянии 9/4 420 м
[Cu Sc Ac lent Cs]
+29.5 +24.6 75 +42 +46 опасность
перегрева
1006.7 1006.4
09 14.01 ЮВ 2 20 км в посл. час дождь 9/5 420 м
[Cu Sc Ac lent Cs]
+28.0 +22.9 74 +37 +38 очень
душно
1005.9 1005.6
12 14.01 В 1 18 км {гроза, дождь} 9/4 420 м
[Cu Sc Ac lent Cs]
+25.9 +24.5 92 +36 +36 очень
душно
1008.1 1007.8 +30.9 0.6
15 14.01 ЮВ 2 18 км 9/3 420 м
[Cu Sc Ac lent Cs]
+25.2 +23.5 90 +34 +34 очень
душно
1010.0 1009.7
18 14.01 В 1 18 км 9/3 420 м
[Cu Sc Ac lent Cs]
+24.5 +23.0 91 +32 +32 очень
душно
1008.2 1007.9
21 14.01 В 1 18 км 9/1 420 м
[Cu Sc Ac lent Cs]
+23.6 +22.5 94 +31 +31 очень
душно
1007.5 1007.2
00 15.01 Ю 2 25 км 9/3 420 м
[Cu Sc Ac lent Cs]
+25.7 +23.2 86 +34 +36 очень
душно
1009.6 1009.3 +23.7 0.6
03 15.01 ЮЗ 4 22 км 9/3 420 м
[Cu Sc Ac lent Cs]
+28.8 +24.5 78 +41 +45 опасность
перегрева
1009.6 1009.3
06 15.01 З 2 20 км 9/3 420 м
[Cu Sc Ac lent Ci sp]
+31.7 +26.2 73 +48 +54 опасность
перегрева
1007.2 1006.9
09 15.01 штиль 0 20 км 9/3 420 м
[Cu Sc Ac lent Cs]
+27.3 +23.9 82 +38 +39 очень
душно
1006.7 1006.4
12 15.01 ЮВ 2 8000 м слабый дождь 10/6 400 м
[Cu Sc Ac lent Cs]
+25.5 +24.3 93 +35 +35 очень
душно
1008.2 1007.9 +26.0 0.2
15 15.01 В 3 18 км {дождь} 9/4 420 м
[Cu Sc Ac lent Cs]
+24.9 +23.0 89 +33 +33 очень
душно
1009.0 1008.7
18 15.01 В 2 18 км в посл. час дождь 9/4 420 м
[Cu Sc Ac lent Cs]
+24.7 +23.0 90 +33 +33 очень
душно
1007.6 1007.3 0.0
21 15.01 В 2 18 км 9/4 420 м
[Cu Sc Ac lent Cs]
+24.5 +23.4 94 +33 +33 очень
душно
1006.7 1006.4
00 16.01 В 2 25 км {дождь} 9/3 420 м
[Cu Sc Ac lent Cs]
+25.4 +23.3 88 +34 +35 очень
душно
1008.5 1008.2 +24.1 0.2
03 16.01 СЗ 1 25 км 9/3 420 м
[Cu Sc Ac lent Cs]
+29.7 +24.8 75 +42 +50 опасность
перегрева
1008.8 1008.5
06 16.01 ЮЗ 2 20 км осадки на расстоянии 9 баллов +30.4 +24.6 71 +43 +44 опасность
перегрева
1006.7 1006.4
09 16.01 СЗ 3 20 км {дождь} 9/4 420 м
[Cb cap Ac lent Cs]
+26.9 +24.6 87 +38 +38 очень
душно
1005.5 1005.2
12 16.01 СВ 1 18 км 9/3 420 м
[Cu Sc Ac lent Cs]
+25.9 +24.1 90 +36 +36 очень
душно
1007.2 1006.9 +31.5 1
15 16.01 В 2 18 км 9/1 420 м
[Cu Sc Ac lent Cs]
+25.2 +23.9 93 +35 +35 очень
душно
1008.4 1008.1
18 16.01 В 2 18 км зарница 9/4 420 м
[Cb cap Ac lent Cs]
+24.9 +23.2 90 +33 +33 очень
душно
1007.2 1006.9
21 16.01 В 2 18 км 9/3 400 м
[Cu Sc Ac lent Cs]
+24.6 +23.0 91 +33 +33 очень
душно
1006.6 1006.3
00 17.01 В 2 25 км 9/1 450 м
[Cu Sc Ac lent Cs]
+25.6 +22.8 85 +34 +35 очень
душно
1008.1 1007.8 +24.4 1
03 17.01 СЗ 1 28 км 9/1 450 м
[Cu Sc Ac lent Ci sp]
+30.0 +24.0 70 +41 +51 опасность
перегрева
1008.3 1008.0
06 17.01 З 1 25 км 9/4 420 м
[Cu Sc Ac lent Cs]
+31.7 +25.5 70 +46 +53 опасность
перегрева
1006.0 1005.7
09 17.01 СЗ 2 25 км 9/5 420 м
[Cb cap Ac lent Cs]
+27.9 +24.8 83 +40 +40 очень
душно
1005.6 1005.3
12 17.01 В 3 8000 м слабый дождь 9/5 420 м
[Cu Sc Ac lent Cs]
+25.0 +24.0 94 +34 +34 очень
душно
1007.3 1007.0 +31.9 1
15 17.01 В 2 10 км слабый дождь 9/4 420 м
[Cu Sc Ac lent Cs]
+24.7 +23.5 93 +33 +33 очень
душно
1008.0 1007.7
18 17.01 ЮВ 2 18 км {дождь} 9/4 420 м
[Cu Sc Ac lent Cs]
+24.3 +23.1 93 +32 +32 очень
душно
1007.1 1006.8
21 17.01 В 3 18 км в посл. час дождь 9/3 420 м
[Cu Sc Ac lent Cs]
+24.0 +23.2 95 +32 +32 очень
душно
1006.7 1006.4
00 18.01 В 2 28 км {дождь} 9/4 420 м
[Cu Sc Ac lent Cs]
+25.3 +23.4 89 +34 +35 очень
душно
1008.4 1008.1 +24.3 3
03 18.01 СЗ 2 28 км 9/4 420 м
[Cu Sc Ac lent Cs]
+28.8 +24.2 76 +40 +46 очень
душно
1008.4 1008.1
06 18.01 СЗ 3 25 км 9/5 420 м
[Cu Sc Ac lent Cs]
+30.2 +25.5 76 +44 +48 опасность
перегрева
1006.1 1005.8
09 18.01 С 2 25 км 9/3 420 м
[Cu Sc Ac lent Cs]
+28.1 +24.9 83 +40 +41 очень
душно
1005.5 1005.2
12 18.01 штиль 0 18 км 9/3 420 м
[Cu Sc Ac lent Cs]
+27.1 +25.2 89 +39 +39 очень
душно
1006.9 1006.6 +27.6
15 18.01 ЮВ 2 18 км 9/3 420 м
[Cu Sc Ac lent Cs]
+25.7 +24.1 91 +36 +36 очень
душно
1007.3 1007.0
18 18.01 В 2 18 км 9/3 420 м
[Cu Sc Ac lent Cs]
+25.1 +23.6 91 +34 +34 очень
душно
1006.9 1006.6
21 18.01 В 1 18 км 9/3 420 м
[Cu Sc Ac lent Cs]
+24.7 +23.5 93 +33 +33 очень
душно
1007.0 1006.7
00 19.01 ЮВ 3 20 км 9/3 420 м
[Cu Sc Ac lent Cs]
+25.5 +23.5 89 +35 +36 очень
душно
1008.4 1008.1 +24.4
03 19.01 штиль 0 24 км 9/3 420 м
[Cu Sc Ac lent Cs]
+30.7 +25.3 73 +45 +53 опасность
перегрева
1009.1 1008.8
06 19.01 ЮВ 4 5000 м слабый дождь 9/5 400 м
[Cu Sc Ac lent Cs]
+26.3 +24.3 89 +37 +40 очень
душно
1006.9 1006.6 1
09 19.01 СЗ 2 25 км {дождь} 9/3 420 м
[Cu Sc Ac lent Cs]
+29.2 +24.8 77 +42 +42 опасность
перегрева
1005.0 1004.7
12 19.01 ЮВ 2 18 км {дождь} 9/4 420 м
[Cu Sc Ac lent Cs]
+27.2 +24.9 87 +39 +39 очень
душно
1007.2 1006.9 +31.4 0.0
15 19.01 ЮВ 2 18 км 9/3 420 м
[Cu Sc Ac lent Cs]
+25.5 +24.3 93 +35 +35 очень
душно
1008.2 1007.9
18 19.01 Ю 3 18 км 9/4 420 м
[Cu Sc Ac lent Cs]
+25.2 +23.1 88 +34 +34 очень
душно
1007.2 1006.9
21 19.01 Ю 5 18 км 9/4 420 м
[Cu Sc Ac lent Cs]
+24.7 +23.2 91 +33 +33 очень
душно
1007.6 1007.3
00 20.01 Ю 4 25 км 9/4 420 м
[Cu Sc Ac lent Cs]
+26.1 +22.7 82 +35 +35 очень
душно
1009.3 1009.0 +24.4 1
03 20.01 ЮЗ 2 28 км 9/3 420 м
[Cu Sc Ac lent Cs]
+30.9 +24.0 67 +43 +50 опасность
перегрева
1008.2 1007.9
06 20.01 З 1 28 км 9/1 450 м
[Cu Sc Ac lent Cs]
+32.3 +25.6 68 +47 +56 опасность
перегрева
1006.2 1005.9
09 20.01 штиль 0 20 км осадки на расстоянии 9/3 420 м
[Cu Sc Ac lent Cs]
+29.7 +24.9 75 +42 +43 опасность
перегрева
1006.5 1006.2
12 20.01 СВ 2 18 км 9/3 420 м
[Cu Sc Ac lent Cs]
+27.3 +24.6 85 +39 +39 очень
душно
1008.6 1008.3 +32.9
15 20.01 В 1 18 км 9/4 420 м
[Cu Sc Ac lent Cs]
+26.2 +24.4 90 +37 +37 очень
душно
1008.8 1008.5
18 20.01 В 2 18 км {дождь} 9/3 420 м
[Cu Sc Ac lent Cs]
+25.1 +23.6 91 +34 +34 очень
душно
1007.4 1007.1 0.0
21 20.01 В 3 18 км 9/3 420 м
[Cu Sc Ac lent Cs]
+24.4 +22.8 91 +32 +32 очень
душно
1006.9 1006.6

 

Местоположение метеостанции Kota Kinabalu (Малайзия): широта 5.93 долгота 116.05 высота над уровнем моря 3 м.

В архиве по умолчанию представлена погода в Kota Kinabalu за последнюю неделю. Архивные данные за месяц целиком и за предыдущие месяцы, начиная с января 2011 года, Вы можете получить, выбрав интересующий диапазон дат из раскрывающегося списка и нажав кнопку "Ввод!".

Внимание! Время в таблицах - всемирное. Для получения местного времени необходимо прибавить поправку, которая в Kota Kinabalu равна 8 ч.

Смотрите также архив погоды в соседних городах и на ближайших метеорологических станциях:

Погода в Labuan (Малайзия) (113 км)
Погода в Brunei Airport (Бруней) (167 км)
Погода в Sandakan (Малайзия) (222 км)
Погода в Longbawan (Индонезия) (248 км)
Погода в Tawau (Малайзия) (274 км)
Погода в Miri (Малайзия) (290 км)
Погода в Tarakan (Индонезия) (334 км)
Погода в Tanjung Selor (Индонезия) (371 км)
Погода в Tanjung Redep (Индонезия) (451 км)
Погода в Bintulu (Малайзия) (452 км)

Пояснения к столбцам:

Ветер - указаны скорость ветра в м/с - средняя за 10 мин, порывы в срок и между сроками (в фигурных скобках) и направление, откуда дует ветер: С - северный, СВ - северо-восточный, В - восточный, ЮВ - юго-восточный, Ю - южный, ЮЗ - юго-западный, З - западный, СЗ - северо-западный.
Видимость - горизонтальная дальность видимости в метрах или километрах. При видимости от 1 до 10 км при отсутствии осадков обычно наблюдается дымка, при ухудшении видимости до 1 км и менее - туман. В сухую погоду видимость может ухудшаться дымом, пылью или мглою.
Явления - указаны атмосферные явления, наблюдавшиеся в срок или в последний час перед сроком; фигурными скобками обозначены явления, наблюдавшиеся между сроками (за 1-3 часа до срока); квадратными скобками обозначены град или гололедные отложения с указанием их диаметра в мм.
Облачность - указаны через наклонную черту общая и нижняя облачность в баллах и высота нижней границы облаков в метрах; квадратными скобками обозначены формы облаков: Ci - перистые, Cs - перисто-слоистые, Cc - перисто-кучевые, Ac - высококучевые, As - высокослоистые, Sc - слоисто-кучевые, Ns - слоисто-дождевые, Cu - кучевые, Cb - кучево-дождевые. Подробнее классификацию облаков см. в Атласе облаков (PDF).
T - Температура воздуха - температура, измеренная на высоте 2 м над землей.
Td - Температура точки росы - температура, при понижении до которой содержащийся в воздухе водяной пар достигнет насыщения.
f - Относительная влажность воздуха - влажноcть воздуха, измеренная на высоте 2 м над землей.
Te - Эффективная температура - температура, которую ощущает одетый по сезону человек в тени. Характеристика душности погоды. При расчете учитывается влияние влажности воздуха и скорости ветра на теплоощущения человека.
Tes - Эффективная температура на солнце - температура, которую ощущает человек, с поправкой на солнечный нагрев. Характеристика знойности погоды. Зависит от высоты солнца над горизонтом, облачности и скорости ветра. Ночью, в пасмурную погоду, а также при ветре 12 м/с и более поправка равна нулю.
P - Атмосферное давление - приведенное к уровню моря атмосферное давление.
Po - Атмосферное давление - измеренное на уровне метеостанции атмосферное давление.
Tmin - Минимальная температура - минимум температуры воздуха на высоте 2 м над землей.
Tmax - Максимальная температура - максимум температуры воздуха на высоте 2 м над землей.
R - Количество осадков - Количество выпавших осадков за период времени, мм. При наведении курсора мыши на число - период времени, за который выпало указанное количество осадков.
R24 - Количество осадков - Количество выпавших осадков за 24 часа, мм.
S - Снежный покров - Высота снежного покрова, см. При наведении курсора мыши на число - состояние снежного покрова и степень покрытия местности в баллах.